{"data":{"norad_id":59718,"intl_designator":"2024-088L","name":"STARLINK-11103 [DTC]","alt_names":[],"object_type":"PAYLOAD","status":"ACTIVE","operator":null,"country":"US","launch_date":"2024-05-10","launch_site_code":"AFWTR","launch_vehicle":null,"mission":null,"orbit_class":"UNKNOWN","rcs_meters":null,"size_class":null,"mass_kg":null,"dimensions":null,"purposes":["comms"],"wikipedia_slug":null,"has_3d_model":false,"image_url":null,"decayed_at":null,"tle_current":{"epoch":"2026-09-21T20:18:35.905824Z","epoch_age_seconds":55059,"freshness":"FRESH","line1":"1 59718U 24088L   26264.84624891  .00000213  00000+0  66195-5 0  9991","line2":"2 59718  53.1594  79.0791 0001104 102.0846 258.0296 15.69710171137088","mean_motion":15.69710171,"eccentricity":0.0001104,"inclination_deg":53.1594,"raan_deg":79.0791,"arg_perigee_deg":102.0846,"mean_anomaly_deg":258.0296,"bstar":6.6195e-6,"rev_number":13708,"period_min":91.736680223116,"perigee_km":358.98240097926,"apogee_km":360.47012118731,"semimajor_km":6737.8632610833,"source":"CELESTRAK","updated_at":"2026-09-22T09:00:49.059299Z"}}}